Regional Weather Roundup
Issued by NWS

Home | Current Version | Previous Version | Text Only | Print | Product List | Glossary On
Versions: 1 2 3 4 5 6 7 8 9 10 11 12 13 14 15 16 17 18 19 20 21 22 23 24 25 26 27 28 29 30 31 32 33 34 35 36 37 38 39 40 41 42 43 44 45 46 47 48 49 50
817
ASUS43 KMPX 261601
RWRMN
WEATHER ROUNDUP FOR MINNESOTA
NATIONAL WEATHER SERVICE TWIN CITIES/CHANHASSEN MN
1100 AM CDT THU APR 26 2018


NOTE: "FAIR" INDICATES FEW OR NO CLOUDS BELOW 12,000 FEET WITH NO
SIGNIFICANT WEATHER AND/OR OBSTRUCTIONS TO VISIBILITY. N/A MEANS
CURRENT SKY AND/OR WEATHER CONDITIONS ARE NOT AVAILABLE.

MNZ060>063-068>070-261700-
   Twin Cities Metro

CITY           SKY/WX    TMP DP  RH WIND       PRES   REMARKS
TWIN CITIES    PTSUNNY   58  34  40 W9        29.85S
ST PAUL        FAIR      58  34  40 W14       29.86R
CRYSTAL        FAIR      56  33  42 NW13G20   29.85R
BLAINE         PTSUNNY   57  34  41 NW12      29.85R
LAKEVILLE      FAIR      55  36  47 W12G21    29.85R
EDEN PRAIRIE   FAIR      56  34  43 NW14      29.86R
SOUTH ST PAUL  FAIR      57  32  38 W9G22     29.85R
LAKE ELMO      FAIR      59  34  38 W13       29.86R
$$
MNZ001>005-007-008-013>017-022>024-027-028-261700-
   Northwest Minnesota

CITY           SKY/WX    TMP DP  RH WIND       PRES   REMARKS
BEMIDJI        FAIR      49  32  52 NW20      29.95R
HALLOCK        FAIR      48  27  43 NW17G25   30.04S
ROSEAU         FAIR      48  34  57 N14G24    29.99S
WARROAD        FAIR      48  30  49 NW13G21   29.98S
THIEF RVR FALL FAIR      46  28  49 N22       30.02R
CROOKSTON      FAIR      48  34  57 N21G30    30.04R
FOSSTON        FAIR      46  30  53 N22       30.00R
DETROIT LAKES  FAIR      46  30  53 N26G32    30.00R
MOORHEAD       FAIR      50  30  46 N24       30.04R
PARK RAPIDS    FAIR      52  30  43 N17G24    29.92R
MAHNOMEN       FAIR      46  31  54 N21G30    29.99R
$$
MNZ006-009>011-018-025>026-261700-
   North Central Minnesota

CITY           SKY/WX    TMP DP  RH WIND       PRES   REMARKS
BAUDETTE       FAIR      47  35  63 NW17G24   29.96R
FLAG ISLAND    FAIR      41  27  56 N16       29.96S
INTL FALLS     CLOUDY    47  34  60 N17G24    29.92R
WASKISH        CLOUDY    48  36  61 N8        29.94S
BIG FORK       PTSUNNY   52  34  50 NW9G17    29.90R
LONGVILLE      FAIR      52  34  50 N14G24    29.90R
GRAND RAPIDS   FAIR      50  33  52 NW22      29.89R
CRANE LAKE     CLOUDY    43  34  70 N7        29.90R
ORR            CLOUDY    46  30  53 NW9       29.87R
COOK           FAIR      46  34  61 N9G18     29.88R
WALKER         PTSUNNY   49  32  52 NW17G24   29.93R
$$
MNZ012-019>021-037-261700-
   Northeast Minnesota

CITY           SKY/WX    TMP DP  RH WIND       PRES   REMARKS
DULUTH         FAIR      51  34  52 NW17G24   29.81R
ELY            PTSUNNY   45  34  65 N9G17     29.84R
HIBBING        PTSUNNY   50  34  54 N17       29.85R
EVELETH        PTSUNNY   49  35  59 N12G20    29.86R
DULUTH HARBOR  FAIR      52  36  54 NW8       29.83R
TWO HARBORS    FAIR      55  37  50 NW12G17   29.78R
SILVER BAY     PTSUNNY   54  34  47 NW3       29.77R
GRAND MARAIS     N/A     42  31  64 VRB3      29.77R
G MARAIS ARPRT PTSUNNY   45  28  53 NW14G23   29.78R
$$
MNZ029>031-032-039>041-046>048-054>057-064-261700-
   West Central Minnesota

CITY           SKY/WX    TMP DP  RH WIND       PRES   REMARKS
FERGUS FALLS   FAIR      52  28  40 N22G36    29.97R
WHEATON        SUNNY     54  28  37 NW25G33   30.04R
MORRIS         SUNNY     54  30  40 N28G33    29.98R
ALEXANDRIA     FAIR      56  28  34 N23       29.95R
ELBOW LAKE     FAIR      51  26  37 N25G36    29.99R
WADENA         FAIR      52  30  43 NW17G23   29.93R
GLENWOOD       FAIR      54  28  37 N22G28    29.94R
APPLETON       SUNNY     55  34  44 N24G31    29.98R
BENSON         SUNNY     55  25  30 NE26G33   29.97R
ORTONVILLE     SUNNY     52  30  43 N28G38    30.01R
WILLMAR        FAIR      54  36  50 N23G31    29.95R
$$
MNZ033>034-036-042>043-049>051-058-059-261700-
   Central Minnesota

CITY           SKY/WX    TMP DP  RH WIND       PRES   REMARKS
ST CLOUD       FAIR      55  38  52 N13G22    29.88R
SAUK CENTRE    FAIR      53  31  43 N21G26    29.92R
PAYNESVILLE    FAIR      55  35  47 N17G29    29.91R
AITKIN         FAIR      54  34  47 N16G22    29.86R
PINE RIVER     FAIR      48  32  53 N17G24    29.94R
BRAINERD       FAIR      53  33  46 N17G26    29.90R
STAPLES        FAIR      54  28  37 N17       29.92R
LONG PRAIRIE   FAIR      52  32  46 NW14      29.92R
LITTLE FALLS   FAIR      54  23  30 N10G25    29.89R
LITCHFIELD     FAIR      55  39  54 N20G28    29.89R
BUFFALO        PTSUNNY   56  35  45 NW10      29.87S
MAPLE LAKE     FAIR      56  39  54 N13       29.88R
HUTCHINSON     FAIR      54  39  57 NW13G21   29.90R
$$
MNZ037-044-045-052-053-261700-
   East Central Minnesota

CITY           SKY/WX    TMP DP  RH WIND       PRES   REMARKS
PRINCETON      FAIR      55  36  47 NW13      29.87R
MORA           FAIR      50  34  53 NW9G18    29.87R
CAMBRIDGE      FAIR      55  37  50 NW9       29.85S
RUSH CITY      CLOUDY    53  34  49 NW8       29.85R
MOOSE LAKE     FAIR      54  34  47 N13G18    29.83R
HINCKLEY       PTSUNNY   54  36  50 NW10G17   29.84R
CLOQUET        FAIR      52  30  43 NW18      29.82R
MCGREGOR       FAIR      52  36  54 NW17G23   29.87R
$$
MNZ071>073-080-081-089-090-097-098-261700-
   Southwest Minnesota

CITY           SKY/WX    TMP DP  RH WIND       PRES   REMARKS
MONTEVIDEO     SUNNY     55  34  44 NE26G32   29.96R
GRANITE FALLS  SUNNY     56  40  54 N28G35    29.96R
CANBY          SUNNY     54  32  43 N21G33    30.00R
MARSHALL       SUNNY     52  39  61 N26G33    29.95R
REDWOOD FALLS  MOSUNNY   53  39  59 N16G23    29.91R
OLIVIA         MOSUNNY   55  39  54 N20G28    29.91R
PIPESTONE      SUNNY    N/A N/A N/A NE22G33   29.96R
WINDOM         MOSUNNY   52  32  46 NW18      29.91R
WORTHINGTON    CLOUDY    50  40  68 N23       29.93R
JACKSON        CLOUDY    50  36  57 W18G28    29.91R
TRACY          MOSUNNY   51  43  73 N24G31    29.94R
SLAYTON        MOSUNNY   48  40  75 N21G29    29.93R
$$
MNZ065>067-074>077-082>085-091>093-261700-
   South Central Minnesota

CITY           SKY/WX    TMP DP  RH WIND       PRES   REMARKS
MANKATO        FAIR      56  37  49 W16G22    29.89R
NEW ULM        MOSUNNY   54  37  54 NW16G23     N/A
ST JAMES       CLOUDY    54  39  58 W15G21    29.91R
FAIRMONT       MOSUNNY   56  39  53 NW20      29.90R
GLENCOE        PTSUNNY   53  38  57 NW10      29.87R
OWATONNA       FAIR      59  39  47 SW16G22   29.87F
WASECA         FAIR      55  37  50 W18G26    29.89S
$$
MNZ078>079-086>088-094>096-261700-
   Southeast Minnesota

CITY           SKY/WX    TMP DP  RH WIND       PRES   REMARKS
ROCHESTER      FAIR      58  40  51 SW15      29.90S
RED WING       FAIR      63  28  27 E9        29.84F
STANTON        FAIR      61  34  35 SW14G22   29.84S
DODGE CENTER   FAIR      57  37  47 SW17G23   29.88F
WINONA         FAIR      59  34  38 W8        29.86S
AUSTIN         FAIR      55  36  47 W12G18    29.90R
PRESTON        FAIR      57  34  41 W10       29.90F
$$
ABBREVIATIONS USED IN REMARKS
   TC - TEMPERATURES IN CELSIUS
  WCI - WIND CHILL INDEX
   HX - HEAT INDEX
  VSB - VISIBILITY
$$




USA.gov is the U.S. government's official web portal to all federal, state and local government web resources and services.